Belmar-Farmingdale, NJ

3:58 AM EST on November 20, 2019 (GMT -0500)
Allaire

Weather History for KBLM - September, 2019

Change the Weather History Date:

Wednesday, September 11, 2019

  Actual Average Record
Temperature  
Mean Temperature 78 °F -  
Max Temperature 90 °F 74 °F 95 °F (2013)
Min Temperature 66 °F 59 °F 48 °F (2012)
Cooling Degree Days 13    
Growing Degree Days 28 (Base 50)    
Moisture  
Dew Point 69 °F    
Average Humidity 77    
Maximum Humidity 96    
Minimum Humidity 55    
Precipitation  
Precipitation 0.00 in - - ()
Sea Level Pressure  
Sea Level Pressure 30.16 in    
Wind  
Wind Speed 7 mph ()    
Max Wind Speed 15 mph    
Max Gust Speed 20 mph    
Visibility 10.0 miles    
Events      
Averages and records for this station are not official NWS values.
T = Trace of Precipitation, MM = Missing Value Source: Averaged Metar Reports

Daily Weather History Graph

Daily Weather History Graph

Search for Another Location

Airport or City:

Astronomy

Sep. 11, 2019 Rise Set
Actual Time 6:33 AM EDT 7:12 PM EDT
Civil Twilight 6:05 AM EDT 7:39 PM EDT
Nautical Twilight 5:33 AM EDT 8:11 PM EDT
Astronomical Twilight 5:00 AM EDT 8:45 PM EDT
Moon 6:23 PM EDT (9/11) 3:53 AM EDT (9/11)
Length of Visible Light 13h 33m
Length of Day
12h 38m
Waxing Gibbous, 94% of the Moon is Illuminated
Sep 11
Waxing Gibbous
Sep 14
Full
Sep 21
Last Quarter
Sep 28
New
Oct 5
First Quarter

Hourly Weather History & Observations

Time (EDT) Temp. Heat Index Dew Point Humidity Pressure Visibility Wind Dir Wind Speed Gust Speed Precip Events Conditions
12:56 AM 68.0 °F - 64.9 °F 90% 30.27 in 10.0 mi South 5.8 mph - N/A   Clear
2:56 AM 66.9 °F - 64.9 °F 93% 30.26 in 10.0 mi SSW 5.8 mph - N/A   Clear
3:56 AM 66.0 °F - 64.9 °F 96% 30.26 in 10.0 mi SSW 6.9 mph - N/A   Clear
4:56 AM 66.0 °F - 64.9 °F 96% 30.25 in 10.0 mi SSW 6.9 mph - N/A   Clear
5:56 AM 66.0 °F - 64.9 °F 96% 30.25 in 10.0 mi SSW 8.1 mph - N/A   Clear
6:56 AM 66.9 °F - 64.9 °F 93% 30.25 in 10.0 mi SSW 6.9 mph - N/A   Clear
7:56 AM 68.0 °F - 66.0 °F 93% 30.25 in 10.0 mi South 4.6 mph - N/A   Clear
8:56 AM 72.0 °F - 66.9 °F 84% 30.24 in 10.0 mi SSW 8.1 mph - N/A   Clear
9:56 AM 75.9 °F - 64.9 °F 69% 30.22 in 10.0 mi SW 13.8 mph - N/A   Clear
10:56 AM 79.0 °F - 66.9 °F 66% 30.19 in 10.0 mi SW 10.4 mph - N/A   Clear
11:56 AM 82.0 °F 85.5 °F 69.1 °F 65% 30.17 in 10.0 mi WSW 11.5 mph 18.4 mph N/A   Clear
12:56 PM 84.0 °F 87.8 °F 69.1 °F 61% 30.14 in 10.0 mi WSW 15.0 mph 19.6 mph N/A   Clear
1:56 PM 87.1 °F 92.8 °F 71.1 °F 59% 30.11 in 10.0 mi WSW 12.7 mph 17.3 mph N/A   Clear
2:56 PM 87.1 °F 92.0 °F 70.0 °F 57% 30.09 in 10.0 mi SW 9.2 mph - N/A   Clear
3:56 PM 89.1 °F 95.0 °F 71.1 °F 55% 30.07 in 10.0 mi WSW 8.1 mph - N/A   Clear
4:56 PM 90.0 °F 96.9 °F 72.0 °F 55% 30.05 in 10.0 mi SW 9.2 mph - N/A   Clear
5:56 PM 87.1 °F 92.8 °F 71.1 °F 59% 30.05 in 10.0 mi SW 5.8 mph - N/A   Clear
6:56 PM 82.0 °F 87.9 °F 73.9 °F 76% 30.05 in 10.0 mi South 3.5 mph - N/A   Clear
7:56 PM 81.0 °F 85.8 °F 73.0 °F 77% 30.06 in 10.0 mi SSW 9.2 mph - N/A   Clear
8:56 PM 78.1 °F - 72.0 °F 81% 30.08 in 10.0 mi SSW 5.8 mph - N/A   Clear
10:56 PM 75.9 °F - 72.0 °F 87% 30.07 in 10.0 mi WSW 3.5 mph - N/A   Clear
11:56 PM 75.0 °F - 72.0 °F 90% 30.05 in 10.0 mi SW 5.8 mph - N/A   Partly Cloudy